Location: Kellogg
(38.0159°N, 90.0546°W)
Time: 22:15:29
(UTC+00:00)

Vanguard 1 - Pass Details

Date: 14 September 2024
Orbit: 648 x 3825 km, 34.3° (Epoch: 12 October)

Event Time Altitude Azimuth Distance (km) Brightness Sun altitude
Rises 00:02:10 0° 273° (W) 3,341 17.5 0.8°
Reaches altitude 10° 00:05:14 10° 259° (WSW) 2,189 13.6 0.2°
Maximum altitude 00:08:58 23° 205° (SSW) 1,370 11.1 -0.6°
Drops below altitude 10° 00:12:30 10° 152° (SSE) 2,061 11.4 -1.3°
Sets 00:15:18 0° 137° (SE) 3,093 12.2 -1.8°
